Regional Weather Roundup
Issued by NWS

Home | Current Version | Previous Version | Graphics & Text | Print | Product List | Glossary On
Versions: 1 2 3 4 5 6 7 8 9 10 11 12 13 14 15 16 17 18 19 20 21 22 23 24 25 26 27 28 29 30 31 32 33 34 35 36 37 38 39 40 41 42 43 44 45 46 47 48 49 50
997
ASUS43 KBIS 232102
RWRND

NORTH DAKOTA REGIONAL WEATHER ROUNDUP
NATIONAL WEATHER SERVICE BISMARCK ND
400 PM CDT SUN APR 23 2017

NOTE: "FAIR" INDICATES FEW OR NO CLOUDS BELOW 12,000 FEET WITH NO
SIGNIFICANT WEATHER AND/OR OBSTRUCTIONS TO VISIBILITY.


NDZ001>003-009>011-017-232200-
NORTHWEST NORTH DAKOTA

CITY           SKY/WX    TMP DP  RH WIND       PRES   REMARKS
WILLISTON      CLOUDY    34  27  75 E20G25    29.93F
MINOT          LGT SNOW  31  28  89 E23G30    30.01F VSB 1   WCI  18
MINOT AFB      MIX PCPN  30  28  92 E21       30.00F VSB 1   WCI  17
$$

NDZ018>021-031>035-040>046-232200-
SOUTHWEST NORTH DAKOTA

CITY           SKY/WX    TMP DP  RH WIND       PRES   REMARKS
BISMARCK       CLOUDY    40  34  79 E22       29.92F
DICKINSON      CLOUDY    37  31  78 E15       29.84F
GARRISON         N/A     31  27  85 E25G32    29.95F WCI  17
HETTINGER ARPT CLOUDY    46  36  68 NE14G21   29.82F
$$

NDZ004>008-012>016-024-026-027-054-232200-
NORTHEAST NORTH DAKOTA

CITY           SKY/WX    TMP DP  RH WIND       PRES   REMARKS
GRAND FORKS    LGT SNOW  32  29  88 E18       30.11F VSB 3/4
GRND FRKS AFB  LGT SNOW  30  28  91 E14       30.11F FOG     WCI  19
DEVILS LAKE    SNOW      28  25  88 E24G30    30.05F VSB 1/2 WCI  14
$$

NDZ022-023-025-028>030-036>039-047>053-232200-
SOUTHEAST NORTH DAKOTA

CITY           SKY/WX    TMP DP  RH WIND       PRES   REMARKS
FARGO          CLOUDY    44  34  67 NE17      29.99F
JAMESTOWN      CLOUDY    34  29  82 NE21G31   29.97F
$$





USA.gov is the U.S. government's official web portal to all federal, state and local government web resources and services.